Location: ???????
(55.8719°N, 38.1523°E)
Time: 02:28:47
(UTC+00:00)

Cosmos 2026 Rocket - Pass Details

Date: 14 April 2024
Orbit: 938 x 1001 km, 82.9° (Epoch: 28 May)

Event Time Altitude Azimuth Distance (km) Brightness Sun altitude
Exits shadow 00:49:33 - 188° (S) 3,130 6.2 -12.4°
Reaches altitude 10° 00:50:36 10° 188° (S) 2,738 5.9 -12.3°
Maximum altitude 00:56:54 89° 99° (E) 1,003 4.1 -11.6°
Drops below altitude 10° 01:03:20 10° 12° (NNE) 2,784 7.1 -10.9°
Sets 01:05:53 0° 12° (NNE) 3,740 7.9 -10.6°
